User: anonymous
Location: Unspecified
(0.0000°N, 0.0000°E)
Time: 06:12:50
(UTC+02:00)
Language:

YAOGAN 1 - Orbit

View from above orbital plane
View from above orbital plane
View from above satellite
View from above satellite

Ground track
Ground track

The orbit data is extracted from the following two-line orbital elements,

1 29092U 06015A   14105.61614762  .00000737  00000-0  10023-3 0   197
2 29092 097.9775 101.3580 0001502 103.2072 033.7880 14.81724725430725
Epoch (UTC): 15 April 2014 14:47:15
Eccentricity: 0.0001502
inclination: 97.9775°
perigee height: 623 km
apogee height: 625 km
right ascension of ascending node: 101.3580°
argument of perigee: 103.2072°
revolutions per day: 14.81724725
mean anomaly at epoch: 33.7880°
orbit number at epoch: 43072

The dashed part of the orbit path shows where the satellite is in the earth's shadow,  

DLR